Home   Weather   39°50'N, 77°55'W   Past weeks
Flag for USA

Past Weather in 39°50'N, 77°55'W, USA — Yesterday and Last 2 Weeks

Now
84 °F

Overcast.


Feels Like: 86 °F
Forecast: 84 / 68 °F
Wind: 16 mph from West

Location: Washington County Regional Airport

Current Time: Jun 20, 2019 at 3:33:18 pm

Latest Report: Jun 20, 2019 at 2:53 pm


Visibility: 10 mi

Pressure: 29.57 "Hg

Humidity: 55%

Dew Point: 66 °F

Location of 39°50'N, 77°55'WLocation

Past Weather in 39°50'N, 77°55'W — Graph

°F

39°50'N, 77°55'W Temperature Yesterday

Maximum temperature yesterday: 86 °F (at 3:53 pm)
Minimum temperature yesterday: 70 °F (at 4:53 am)
Average temperature yesterday: 76 °F

High & Low Weather Summary for the Past Weeks

 TemperatureHumidityPressure
High86 °F (Jun 6, 5:53 pm)97% (Jun 13, 6:17 am)30.24 "Hg (Jun 13, 6:17 am)
Low55 °F (Jun 12, 5:53 am)31% (Jun 11, 4:53 pm)29.58 "Hg (Jun 20, 1:53 pm)
Average71 °F67%29.95 "Hg
* Reported Jun 5 1:53 pm — Jun 20 1:53 pm, 39°50'N, 77°55'W. Weather by CustomWeather, © 2019

Note: Actual official high and low records may vary slightly from our data, if they occured in-between our weather recording intervals... More about our weather records

Advertising

39°50'N, 77°55'W Weather History for the Previous 24 Hours

Scroll right to see more
 ConditionsComfort  
Time TempWeatherWind HumidityBarometerVisibility
1:53 pm
Thu, Jun 20
83 °FBroken clouds.13 mph59%29.58 "Hg10 mi
12:53 pm82 °FBroken clouds.10 mph63%29.60 "Hg10 mi
11:53 am80 °FPassing clouds.9 mph74%29.62 "Hg10 mi
10:53 am75 °FMostly cloudy.7 mph90%29.63 "Hg8 mi
9:53 am76 °FScattered clouds.6 mph82%29.62 "Hg10 mi
8:53 am74 °FScattered clouds.6 mph88%29.62 "Hg10 mi
7:53 am73 °FScattered clouds.6 mph90%29.64 "Hg10 mi
6:58 am71 °FScattered clouds.5 mph96%29.62 "Hg8 mi
6:18 am71 °FFog.No wind96%29.62 "Hg3 mi
6:09 am71 °FFog.No wind96%29.62 "Hg1 mi
5:53 am70 °FFog.No wind97%29.63 "Hg0 mi
5:08 am71 °FFog.No wind96%29.64 "Hg2 mi
4:53 am71 °FFog.No wind96%29.64 "Hg5 mi
3:53 am71 °FFog.3 mph96%29.63 "Hg0 mi
2:53 am73 °FClear.No wind94%29.64 "Hg7 mi
1:53 am75 °FClear.No wind88%29.66 "Hg10 mi
12:53 am74 °FClear.5 mph91%29.68 "Hg10 mi
12:05 am76 °FPartly cloudy.7 mph88%29.69 "Hg10 mi
11:53 pm
Wed, Jun 19
76 °FThundershowers. Partly cloudy.3 mph88%29.70 "Hg10 mi
10:53 pm78 °FPassing clouds.6 mph79%29.70 "Hg10 mi
9:53 pm79 °FPassing clouds.6 mph74%29.70 "Hg10 mi
8:53 pm81 °FPassing clouds.6 mph69%29.70 "Hg10 mi
7:53 pm83 °FPassing clouds.5 mph65%29.70 "Hg10 mi
6:53 pm84 °FPartly sunny.7 mph63%29.71 "Hg10 mi
5:53 pm83 °FScattered clouds.6 mph65%29.72 "Hg10 mi
4:53 pm83 °FPartly sunny.13 mph65%29.73 "Hg10 mi
3:53 pm86 °FBroken clouds.12 mph59%29.74 "Hg10 mi
Weather by CustomWeather, © 2019

See weather overview